Terminal Aerodrome Forecast
Issued by NWS Atlanta, GA

Home | Current Version | Previous Version | Text Only | Print | Product List | Glossary On
Versions: 1 2 3 4 5 6 7 8 9 10 11 12 13 14 15 16 17 18 19 20 21 22 23 24 25 26 27 28 29 30 31 32 33 34 35 36 37 38 39 40 41 42 43
000
FTAK31 PAJN 161400 AAA
TAFAHN
TAF AMD
PAHN 161439Z 1615/1712 VRB03KT P6SM BKN004 OVC015
      TEMPO 1615/1618 1SM -RA BR SCT004 OVC015
     FM161800 13004KT P6SM VCSH SCT004 OVC015
     FM162100 10007KT P6SM SCT020 OVC060
     FM170000 11005KT P6SM BKN060
     FM170500 07004KT P6SM BKN050
      AMD LTD TO CLD VIS AND WIND=

USA.gov is the U.S. government's official web portal to all federal, state and local government web resources and services.